Wind_Speed
15 16 17 17 19 21 23 24 23 22 22 22 23 25 26 26 27 28 30 32 34 35 37 38 41 43 44 45 45 45 45 44 44 43 43 43 44 44 44 43 42 42 42 41
14 15 16 17 18 20 22 24 24 23 22 22 23 25 26 27 27 27 29 31 33 34 35 36 38 40 42 43 44 44 45 44 44 43 43 43 43 43 43 43 42 41 40 41
14 15 16 16 17 19 21 23 24 24 25 24 24 24 25 26 27 29 29 30 32 33 35 36 37 38 40 41 42 43 43 43 43 43 42 42 42 43 43 42 41 41 40 40
15 15 16 17 17 18 20 21 22 23 24 25 24 24 26 27 27 27 28 30 31 31 33 34 36 37 38 39 40 41 42 43 43 42 42 42 42 42 42 41 41 40 39 39
15 15 15 16 17 18 19 20 21 22 23 24 25 25 26 28 28 28 28 29 30 31 32 33 34 35 37 37 38 39 39 40 41 41 41 41 40 41 41 40 40 39 38 38
16 16 15 15 16 17 19 20 21 22 23 23 24 24 25 27 28 28 28 28 29 30 31 32 33 35 35 37 38 38 39 39 39 39 39 39 39 39 39 39 39 38 38 37
16 17 16 16 17 17 18 19 21 21 22 22 22 22 23 25 27 28 28 28 28 29 30 31 33 34 34 35 37 38 38 38 38 38 38 39 39 38 38 38 38 38 37 37
16 17 17 17 17 18 19 19 20 20 21 21 21 22 22 23 25 27 27 27 27 28 29 31 33 33 33 34 35 36 37 37 37 37 38 38 38 38 38 37 37 37 37 37
16 17 17 17 18 18 19 19 19 20 21 21 21 21 22 22 23 24 26 26 26 27 28 29 31 33 33 33 33 34 35 36 36 36 36 36 36 37 37 37 37 37 36 36
16 17 18 17 18 18 19 19 20 20 20 21 21 21 21 22 23 23 24 25 26 26 26 27 28 29 31 32 33 33 33 34 35 35 35 35 35 36 36 36 36 36 36 36
16 17 18 18 18 18 18 18 19 20 20 20 20 20 20 19 20 21 22 24 24 24 26 26 26 26 28 30 31 31 32 32 33 33 34 34 34 35 35 35 35 35 35 35
16 17 17 18 18 18 18 18 19 19 20 20 21 20 20 19 19 20 22 23 23 23 24 25 26 26 26 28 30 30 30 31 31 32 33 33 33 33 34 34 34 34 34 35
16 16 17 18 18 19 19 18 19 19 19 20 20 20 20 20 20 20 21 22 22 22 23 24 24 25 25 26 27 28 29 30 31 32 32 33 32 32 32 33 33 33 33 34
16 16 16 17 18 19 19 19 18 18 18 18 19 19 19 19 19 20 20 21 21 22 23 23 24 25 25 26 26 27 28 30 31 32 32 31 31 32 32 32 31 32 32 32
16 16 16 17 18 18 19 19 19 18 18 18 18 18 19 19 19 19 19 20 20 20 21 22 23 24 24 25 26 27 28 28 30 31 31 31 31 31 30 30 30 30 30 30
16 16 16 17 17 17 18 18 18 18 18 18 18 18 19 20 20 20 20 20 20 20 21 22 23 23 25 25 26 27 27 28 29 29 30 30 29 29 29 29 29 29 29 29
17 17 17 17 17 17 17 16 16 17 16 17 18 18 19 20 20 20 20 20 20 19 19 20 21 22 23 24 26 26 27 27 28 28 28 28 28 28 28 28 28 28 28 28
17 17 17 17 17 17 17 16 16 16 16 16 17 18 18 19 19 19 19 19 19 19 19 20 20 21 21 22 24 25 26 26 27 27 26 27 27 28 28 28 27 26 26 26
17 18 18 18 17 17 17 17 16 16 16 16 16 16 17 18 18 18 18 18 18 19 19 19 19 19 20 21 22 22 23 24 24 25 26 26 26 27 27 26 26 25 25 25
17 18 18 18 18 17 17 17 17 16 16 16 16 16 16 16 17 17 17 17 17 18 18 18 18 18 19 19 20 20 21 22 22 23 24 25 25 25 25 25 24 24 24 24
17 17 17 17 17 17 17 17 16 16 15 15 15 16 16 16 16 17 17 17 17 17 17 18 18 18 17 18 18 18 19 20 21 21 22 23 24 24 24 24 23 23 23 22
18 18 17 17 17 16 16 16 16 15 15 15 15 15 16 16 16 16 16 16 16 16 16 16 16 16 16 16 16 16 17 18 19 20 20 21 22 22 22 22 22 21 21 21
18 18 18 17 16 16 16 15 15 15 14 14 14 14 14 15 15 14 14 15 15 15 15 15 15 15 14 14 14 15 15 16 17 18 18 18 19 20 20 20 20 19 19 19
19 19 18 17 16 16 15 15 14 14 13 13 12 12 12 12 13 13 13 14 13 13 14 14 14 14 14 14 14 14 14 14 15 15 15 15 16 16 16 17 17 17 17 17
19 18 17 16 16 15 15 15 14 13 12 12 11 11 11 11 12 12 12 12 12 12 12 13 13 13 13 13 13 13 13 13 13 13 13 13 13 13 14 15 15 16 16 16
18 17 16 16 15 15 14 14 13 12 12 11 11 11 11 11 12 12 12 12 12 12 12 12 13 13 13 12 12 12 12 12 12 12 13 13 13 12 12 13 13 13 13 13
17 16 15 15 14 14 14 13 12 12 12 11 11 11 11 11 11 11 11 11 11 11 11 11 12 12 11 11 12 12 12 12 12 12 12 12 12 12 12 12 12 12 12 12
Wind_Direction
264 260 254 252 250 247 245 246 252 250 250 250 251 251 249 249 247 244 242 241 241 240 239 239 239 238 239 240 240 241 243 244 245 245 246 246 247 248 249 250 253 255 258 260
265 260 256 255 253 252 249 249 252 253 250 251 254 253 251 249 245 243 241 241 241 241 240 239 239 239 239 240 240 241 243 244 244 244 245 246 248 248 249 251 253 255 258 260
273 264 259 258 256 254 250 251 254 256 254 254 255 254 252 249 247 245 243 241 241 242 241 239 239 239 239 239 240 241 242 242 243 244 246 247 248 248 249 251 252 254 257 259
279 273 268 264 259 256 252 252 255 258 257 257 258 256 252 250 247 245 244 243 241 241 240 240 239 239 239 239 240 241 242 242 243 244 245 246 247 248 249 250 251 253 256 258
280 280 276 270 264 258 256 255 258 259 259 257 258 256 252 249 247 246 245 243 242 241 240 240 240 240 239 239 240 240 241 242 243 243 243 244 246 248 249 249 250 252 254 256
278 279 279 275 269 265 262 260 260 262 262 260 259 255 249 247 246 245 245 245 244 242 242 241 240 240 240 241 241 241 241 242 242 243 243 244 245 246 247 248 249 250 253 255
278 277 277 277 273 269 265 264 262 263 263 262 259 256 252 249 248 247 248 248 247 245 244 243 240 240 241 242 242 241 241 241 241 242 242 243 244 245 246 247 248 250 252 255
278 277 277 277 275 271 269 268 266 264 262 262 260 256 253 251 250 249 249 249 249 248 247 245 242 241 241 242 242 242 241 241 241 242 242 243 244 244 245 246 248 250 252 255
281 278 278 279 277 275 271 270 269 267 263 261 259 258 254 252 252 251 250 248 249 250 249 246 244 243 242 243 242 241 240 240 240 241 242 243 243 243 244 246 248 250 253 255
284 281 279 278 279 278 275 272 269 268 265 262 259 257 256 253 252 252 252 252 251 250 248 246 245 244 243 242 242 240 239 239 240 240 241 242 243 244 245 247 249 250 252 256
287 283 281 279 279 279 278 276 271 268 266 263 259 257 253 251 251 252 252 252 251 249 246 245 246 245 243 241 240 240 239 238 238 238 240 241 243 245 247 249 250 251 253 256
289 286 284 282 281 280 280 279 275 271 267 264 261 258 254 252 252 254 253 251 250 248 246 244 243 242 242 243 242 240 238 239 239 240 240 242 244 246 247 249 250 251 254 257
291 288 286 284 281 281 282 280 278 273 268 265 262 259 255 253 252 253 252 251 250 248 245 243 243 242 242 242 242 241 239 239 241 242 242 243 244 246 248 248 250 252 255 258
290 288 287 287 284 282 282 281 278 274 269 265 262 258 254 253 253 254 253 251 249 248 247 245 244 242 242 243 243 242 242 242 243 243 243 244 245 247 248 249 251 254 257 260
292 290 289 289 288 286 283 281 277 273 271 268 265 259 255 253 254 254 253 250 249 248 247 245 243 242 243 244 244 244 243 244 243 243 244 245 247 249 249 250 252 254 258 261
292 291 291 291 290 289 286 283 278 273 270 268 264 260 257 254 255 254 252 251 249 247 246 245 244 244 246 247 246 245 244 244 244 244 245 246 248 249 249 250 252 255 258 263
293 292 292 292 291 290 287 284 278 274 269 265 262 260 258 256 255 253 252 251 249 248 247 245 245 247 248 248 248 247 246 245 245 246 245 246 247 248 249 251 254 257 261 264
294 294 293 291 289 288 287 285 281 276 272 267 263 260 258 257 254 251 251 250 249 249 249 247 245 246 248 248 248 247 244 243 244 243 243 244 245 247 250 253 255 258 261 264
299 297 294 291 287 285 285 285 283 278 274 269 264 261 258 256 253 250 248 249 248 248 248 248 248 248 247 247 246 245 243 242 242 241 243 244 246 249 251 253 255 259 263 266
302 300 297 293 288 285 284 283 281 278 274 269 264 261 258 255 252 250 248 247 247 246 245 246 247 247 247 247 247 247 245 243 243 243 243 245 247 248 249 252 255 259 262 266
304 302 299 295 290 286 285 283 280 276 273 269 263 259 256 253 252 250 248 246 247 246 244 244 244 245 247 248 247 245 243 241 242 242 243 244 245 246 248 252 255 258 261 264
304 302 300 296 292 287 285 284 281 278 274 269 264 259 255 253 251 249 247 245 245 245 243 242 242 243 244 245 244 242 240 240 240 241 242 243 245 246 248 251 255 258 260 262
303 301 299 295 291 288 286 284 281 278 274 269 264 261 257 252 248 245 243 242 242 242 240 239 238 237 236 239 241 240 239 239 239 240 242 243 245 246 247 249 251 254 257 261
301 300 298 295 290 288 287 285 282 277 273 268 264 260 254 249 244 241 240 238 238 238 237 236 234 233 234 235 237 239 240 239 237 237 241 244 245 245 247 248 251 253 257 261
299 299 297 294 291 288 286 285 281 276 270 265 260 256 250 243 240 239 238 236 234 231 230 228 227 228 231 234 236 235 236 238 238 238 240 242 244 246 248 250 252 255 258 261
299 298 297 293 289 286 285 282 278 272 265 262 258 251 245 241 240 240 238 235 232 229 227 226 224 225 229 233 234 233 236 239 240 240 242 241 242 246 248 249 252 255 258 259
298 297 295 292 288 284 281 278 274 268 261 257 253 247 242 239 237 235 234 232 229 225 223 223 224 227 228 231 234 236 238 240 241 241 240 240 243 247 250 252 253 255 258 259
Height
5566 5566 5566 5567 5567 5568 5570 5571 5573 5575 5576 5577 5578 5580 5581 5583 5585 5588 5590 5593 5596 5600 5603 5607 5610 5614 5618 5623 5626 5630 5634 5638 5642 5645 5648 5651 5654 5657 5660 5663 5666 5668 5669 5671
5562 5561 5561 5562 5562 5563 5564 5565 5567 5568 5570 5571 5572 5573 5574 5576 5578 5581 5583 5585 5588 5591 5594 5598 5601 5605 5608 5612 5616 5620 5624 5628 5631 5635 5638 5641 5644 5647 5650 5653 5656 5658 5660 5661
5558 5557 5557 5557 5558 5557 5559 5559 5561 5562 5564 5564 5566 5566 5567 5569 5571 5573 5575 5577 5580 5582 5585 5588 5591 5595 5598 5602 5606 5610 5613 5617 5621 5625 5628 5632 5635 5638 5640 5643 5646 5648 5650 5651
5553 5553 5553 5554 5552 5553 5553 5554 5555 5556 5557 5557 5559 5560 5560 5561 5563 5565 5567 5569 5571 5574 5576 5579 5582 5585 5589 5592 5596 5600 5603 5607 5611 5615 5618 5622 5625 5628 5630 5633 5636 5638 5640 5641
5549 5548 5548 5549 5548 5548 5548 5549 5549 5549 5550 5551 5552 5553 5554 5554 5556 5557 5559 5561 5563 5566 5568 5570 5573 5576 5579 5583 5586 5590 5593 5597 5601 5605 5608 5612 5615 5618 5621 5623 5626 5628 5630 5631
5544 5543 5543 5545 5543 5542 5543 5543 5543 5543 5544 5544 5544 5546 5548 5547 5548 5550 5551 5553 5555 5557 5559 5562 5564 5567 5570 5573 5576 5580 5584 5587 5591 5595 5598 5602 5605 5608 5611 5614 5616 5618 5620 5622
5539 5538 5539 5539 5537 5537 5539 5539 5537 5537 5537 5537 5537 5538 5540 5540 5541 5542 5543 5545 5547 5549 5551 5553 5555 5558 5561 5564 5567 5570 5574 5578 5582 5585 5589 5593 5596 5599 5602 5604 5607 5609 5611 5613
5534 5534 5536 5533 5532 5532 5532 5531 5531 5531 5531 5531 5531 5532 5532 5533 5534 5535 5536 5537 5539 5540 5542 5543 5545 5549 5552 5555 5558 5561 5565 5569 5572 5576 5580 5583 5586 5589 5592 5595 5597 5600 5602 5603
5531 5531 5529 5527 5526 5526 5525 5525 5525 5525 5524 5525 5525 5525 5526 5526 5527 5528 5529 5530 5532 5533 5534 5535 5537 5540 5543 5546 5549 5552 5556 5560 5563 5567 5570 5574 5577 5580 5582 5585 5588 5590 5592 5594
5525 5525 5523 5522 5521 5520 5519 5519 5519 5518 5518 5518 5518 5518 5519 5519 5520 5521 5522 5523 5524 5526 5527 5528 5530 5532 5535 5538 5541 5544 5547 5551 5555 5558 5562 5565 5568 5571 5573 5576 5579 5581 5583 5585
5520 5519 5518 5517 5515 5515 5514 5513 5512 5512 5512 5511 5511 5512 5512 5513 5514 5514 5515 5516 5518 5519 5520 5522 5523 5525 5528 5530 5533 5536 5539 5543 5546 5550 5553 5556 5559 5562 5565 5567 5570 5572 5574 5576
5515 5514 5512 5512 5510 5509 5508 5507 5506 5506 5505 5505 5505 5505 5506 5506 5507 5508 5509 5510 5511 5513 5514 5516 5517 5519 5521 5524 5526 5529 5532 5536 5539 5542 5545 5548 5551 5554 5556 5558 5560 5563 5565 5566
5510 5508 5507 5506 5504 5503 5502 5501 5500 5500 5499 5499 5499 5499 5500 5500 5501 5502 5503 5504 5506 5507 5508 5510 5512 5514 5516 5518 5520 5523 5526 5529 5532 5534 5537 5540 5543 5545 5548 5550 5552 5554 5555 5557
5504 5503 5502 5500 5499 5498 5496 5495 5494 5494 5493 5493 5493 5493 5494 5495 5496 5497 5497 5498 5500 5501 5502 5504 5505 5507 5510 5512 5514 5517 5519 5522 5524 5527 5530 5532 5535 5538 5540 5542 5544 5545 5547 5548
5499 5497 5496 5495 5493 5492 5490 5489 5488 5487 5487 5487 5487 5487 5488 5489 5490 5491 5492 5493 5494 5495 5496 5497 5499 5501 5503 5505 5507 5510 5512 5514 5517 5520 5522 5525 5528 5530 5532 5534 5536 5538 5539 5540
5493 5492 5490 5489 5487 5486 5484 5483 5482 5481 5481 5481 5481 5481 5482 5483 5484 5485 5486 5487 5488 5489 5490 5491 5493 5495 5497 5498 5500 5502 5505 5507 5509 5512 5515 5518 5520 5523 5525 5527 5528 5530 5531 5531
5488 5486 5485 5483 5482 5480 5479 5478 5476 5476 5475 5475 5475 5475 5476 5476 5477 5478 5480 5481 5482 5483 5484 5485 5487 5488 5490 5492 5493 5495 5497 5500 5502 5505 5508 5510 5513 5515 5517 5519 5521 5522 5522 5523
5482 5481 5479 5477 5476 5474 5473 5472 5471 5470 5470 5469 5469 5469 5470 5470 5471 5472 5473 5475 5476 5477 5478 5479 5480 5482 5483 5485 5486 5488 5490 5493 5495 5498 5500 5503 5505 5508 5510 5511 5513 5514 5514 5514
5476 5475 5473 5471 5470 5469 5467 5466 5465 5464 5464 5464 5464 5464 5464 5464 5465 5466 5467 5469 5470 5471 5472 5473 5475 5476 5477 5478 5480 5481 5483 5486 5488 5491 5493 5495 5498 5500 5502 5503 5505 5506 5506 5507
5471 5469 5467 5465 5464 5463 5462 5461 5460 5459 5458 5458 5458 5458 5458 5459 5460 5460 5462 5463 5464 5465 5467 5468 5469 5470 5471 5472 5474 5475 5477 5479 5481 5483 5486 5488 5490 5492 5494 5495 5497 5498 5499 5499
5465 5463 5461 5459 5458 5457 5456 5455 5454 5453 5453 5452 5452 5452 5453 5453 5454 5455 5456 5458 5459 5460 5461 5462 5463 5464 5466 5467 5468 5469 5471 5472 5474 5477 5479 5481 5483 5485 5486 5488 5489 5490 5491 5491
5460 5458 5456 5454 5452 5451 5450 5449 5448 5447 5447 5447 5446 5447 5447 5448 5449 5450 5451 5452 5453 5454 5456 5457 5458 5459 5460 5461 5462 5464 5465 5467 5469 5471 5472 5474 5476 5478 5479 5481 5482 5483 5484 5484
5454 5452 5450 5448 5447 5445 5444 5443 5442 5442 5441 5441 5441 5441 5442 5443 5444 5445 5446 5447 5448 5449 5451 5452 5453 5454 5456 5457 5458 5459 5461 5462 5464 5465 5467 5468 5470 5471 5473 5474 5475 5476 5477 5478
5448 5446 5444 5442 5441 5440 5439 5438 5437 5436 5436 5436 5436 5436 5437 5438 5439 5440 5441 5442 5444 5445 5446 5447 5449 5450 5452 5453 5454 5455 5457 5458 5459 5461 5462 5463 5464 5466 5467 5468 5469 5470 5471 5472
5442 5440 5438 5436 5435 5434 5433 5432 5432 5431 5431 5431 5432 5432 5433 5434 5435 5436 5437 5438 5439 5441 5442 5443 5445 5446 5448 5449 5451 5452 5453 5454 5456 5457 5458 5459 5460 5461 5462 5463 5464 5465 5466 5466
5436 5434 5432 5431 5430 5429 5428 5427 5427 5427 5427 5427 5428 5428 5429 5430 5431 5432 5433 5434 5436 5437 5438 5440 5441 5443 5445 5446 5447 5449 5450 5451 5452 5453 5454 5455 5456 5457 5458 5459 5460 5460 5461 5461
5431 5429 5427 5426 5425 5424 5423 5423 5423 5423 5423 5423 5424 5425 5425 5426 5427 5428 5430 5431 5432 5434 5435 5437 5438 5440 5441 5442 5444 5445 5446 5447 5448 5449 5450 5451 5452 5453 5454 5455 5455 5456 5457 5457